Regional Weather Roundup
Issued by NWS

Home | Current Version | Previous Version | Text Only | Print | Product List | Glossary Off
Versions: 1 2 3 4 5 6 7 8 9 10 11 12 13 14 15 16 17 18 19 20 21 22 23 24 25 26 27 28 29 30 31 32 33 34 35 36 37 38 39 40 41 42 43 44 45 46 47 48 49 50

000
ASUS43 KLMK 030510
RWRKY
KENTUCKY REGIONAL WEATHER ROUNDUP
NATIONAL WEATHER SERVICE LOUISVILLE KY
100 AM EDT FRI JUL 03 2015

NOTE "FAIR" INDICATES FEW OR NO CLOUDS BELOW 12,000 FEET
WITH NO SIGNIFICANT WEATHER AND/OR OBSTRUCTIONS TO VISIBILITY.

KYZ001>023-026-027-061>063-070>075-030600-
WESTERN AND SOUTH CENTRAL KENTUCKY

CITY           SKY/WX    TMP DP  RH WIND       PRES   REMARKS
PADUCAH        CLOUDY    74  69  85 CALM      29.87R
HENDERSON      CLOUDY    73  70  88 NW3       29.86R
OWENSBORO      MOCLDY    74  71  90 CALM      29.87R
HOPKINSVILLE   CLOUDY    74  69  83 N7        29.88R
BOWLING GREEN  CLOUDY    75  70  84 SW7       29.87S
GLASGOW        CLOUDY    70  70 100 CALM      29.88R
$$

KYZ024-025-028>034-038-045-046-053-030600-
NORTH CENTRAL KENTUCKY

CITY           SKY/WX    TMP DP  RH WIND       PRES   REMARKS
LOUISVILLE/SDF MOCLDY    73  70  90 CALM      29.86R
LOUISVILLE/LOU MOCLDY    72  70  93 VRB3      29.87R
FORT KNOX      CLOUDY    71  70  96 SE2       29.85R
$$

KYZ035>037-039>044-047>052-055>060-089>105-030600-
NORTHEAST KENTUCKY

CITY           SKY/WX    TMP DP  RH WIND       PRES   REMARKS
LEXINGTON      CLOUDY    71  68  90 SE5       29.89S
COVINGTON      CLOUDY    70  67  90 NE8       29.90F FOG
FRANKFORT      CLOUDY    71  68  90 E3        29.88R
$$

KYZ054-064>069-076>088-106>120-030600-
SOUTHEAST KENTUCKY

CITY           SKY/WX    TMP DP  RH WIND       PRES   REMARKS
JACKSON        CLOUDY    68  65  90 VRB3      29.92F
LONDON         LGT RAIN  71  67  87 E5        29.90F
SOMERSET       CLOUDY    70  70 100 CALM      29.91R
MIDDLESBORO    CLOUDY    70  70 100 CALM      29.92F
MONTICELLO     CLOUDY    70  70 100 CALM      29.92R FOG
$$




USA.gov is the U.S. government's official web portal to all federal, state and local government web resources and services.